Regional Weather Roundup
Issued by NWS Newport/Morehead, NC

Current Version | Previous Version | Graphics & Text | Print | Product List | Glossary Off
Versions: 1 2 3 4 5 6 7 8 9 10 11 12 13 14 15 16 17 18 19 20 21 22 23 24 25 26 27 28 29 30 31 32 33 34 35 36 37 38 39 40 41 42 43 44 45 46 47 48 49 50

000
ASUS42 KMHX 020025
RWRMHX
WEATHER ROUNDUP FOR EASTERN NORTH CAROLINA
NATIONAL WEATHER SERVICE NEWPORT/MOREHEAD CITY NC
800 PM EDT WED JUL 01 2015

NOTE: "FAIR" INDICATES FEW OR NO CLOUDS BELOW 12,000 FEET
WITH NO SIGNIFICANT WEATHER AND/OR OBSTRUCTIONS TO VISIBILITY

NCZ015>017-031-032-045>047-102-103-020100-
NORTH COAST

CITY           SKY/WX    TMP DP  RH WIND       PRES   REMARKS
EDENTON          N/A     83  71  67 SW7       29.92R
ELIZABETH CITY CLEAR     81  69  67 SW5       29.91R
KITTY HAWK     CLEAR     84  71  64 SW5       29.91R
MANTEO         CLEAR     82  74  78 SW10      29.92R

$$

NCZ045>047-081-094-103-104-020100-
CENTRAL COAST

CITY           SKY/WX    TMP DP  RH WIND       PRES   REMARKS
FRISCO         CLEAR     79  74  84 SW14G20   29.94R
SWANQUARTER      N/A     82 N/A N/A SW12G21   29.88S

$$

NCZ095-097-098-100-101-020100-
SOUTHERN COAST

CITY           SKY/WX    TMP DP  RH WIND       PRES   REMARKS
BEAUFORT       MOCLDY    79  75  87 SW16      29.95R
CEDAR ISLAND     N/A     79 N/A N/A S9G16     29.97S
JACKSONVILLE   NOT AVBL
PINEY ISLAND   CLEAR    N/A N/A N/A S9        29.94R
WILMINGTON     CLEAR     81  74  79 SW7       29.96R


$$

NCZ011>013-027>030-043-044-078>080-089-090>093-098-020100-
COASTAL PLAIN

CITY           SKY/WX    TMP DP  RH WIND       PRES   REMARKS
AHOSKIE        CLEAR     76  71  84 CALM      29.92R
CLINTON        PTCLDY    79  74  85 CALM      29.95F
ELIZABETHTOWN  PTCLDY    80  73  78 CALM      29.96S
GOLDSBORO      PTCLDY    80  72  75 S3        29.92S
GREENVILLE     CLEAR     81  72  74 SW8       29.95S
HAVELOCK       CLEAR     80  73  79 SW8       29.95R
KENANSVILLE    CLEAR     76  71  84 CALM      29.96S
KINSTON        CLEAR     81  72  74 SW6       29.95R
NEW BERN       CLEAR     81  73  76 W5        29.95R
RICHLANDS      CLEAR     79  70  73 CALM      29.96S
ROCKY MOUNT    PTCLDY    82  70  66 S8        29.92R
WASHINGTON     CLEAR     80  71  75 SW7       29.94R
WHITEVILLE     PTCLDY    81  72  76 CALM      29.97R

$$

AMZ130-135-150-152-154-156-158-170-250-252-270-ANZ085-086-088-633-658-670-020100-
MARINE OBSERVATIONS

STATION/POSITION TIME  TEMP    WIND        PRES    WAVE   SWELL
                       AIR SEA DIR/SP/G            HT/PER HT/PER
                 (UTC) (F)     (DEG/KT/KT) (MB)    (FT/S) (FT/S)
CHESAPEAKE LIGHT 0000   81     240/ 11/ 11 1013.1
64 E VA BEACH    2350   78 77  210/ 10/ 12 1012.1    5/ 7   5/ 7
DUCK             0000   83 67  250/  7/  9 1012.1
2 E DUCK         2311      73                N/A     2/ 8
OREGON INLET     0000   81 84  210/ 14/ 17 1013.1
13E OREGON INLT  0000      73                N/A     4/ 8
HATTERAS CG      0000   78 82  210/ 10/ 14 1013.3
DIAMOND BUOY     2350   81 83  220/ 17/ 19 1013.4    5/ 6   3/ 8
CAPE LOOKOUT     0000   79     230/ 11/ 15 1014.0
BEAUFORT LAB     0000   79 81  230/  6/ 11 1013.5
30 SE NEW RVR IN NOT AVBL
27 SE WRIGHTSVLE 0000      80  240/ 17/ 19   N/A
5 SE WRIGHTSVLE  2308   80 81  220/ 16/ 19 1013.8
225 S CAPE HAT   2350   82 80  230/ 16/ 19 1018.0    6/ 7   2/ 8
41 SE CHARLESTON 2350   82 83  220/ 16/ 19 1015.3    5/ 6   2/ 8

$$


USA.gov is the U.S. government's official web portal to all federal, state and local government web resources and services.